Volver al catálogo

FENGYUN 1C DEB

ActivoSSO
NORAD 30450·DEBRIS·🇨🇳 China

Lanzado May 10, 1999 desde Taiyuan Satellite Launch Center

Loading…

Próximos Pases (próximas 24 horas)

TLE

ActualizadoSource: Space-Track

Época: Sep 14, 2026, 00:24 UTC

1 30450U 99025AFM 26257.01710569  .00002641  00000-0  40266-3 0  9992
2 30450  98.0709 270.3398 0185602  62.8671   0.7897 14.63733165 35616

Sigue FENGYUN 1C DEB en tiempo real con AllMySat

Download on the App Store